Starlink 30378

operational
NORAD ID: 57787 Int'l Des: 2023-134 Owner: SPXS Country: US Constellation: starlink
LEOCIRCULAR

About Starlink 30378

Description loading...

Live Position

Loading 3D Globe...

Upcoming Passes

Altitude History

Altitude vs Time

uPlot chart will show altitude changes over time

Two-Line Element Set

1 57787U 23134S 25259.76880228 -.00000466 00000-0 -19403-4 0 9990
2 57787 43.0034 62.1464 0001005 260.9196 99.1533 15.02533282113312
Epoch: Sep 16, 2025 • Age: 32 hours

Current Status

Altitude 558.4 km
Velocity 7.58 km/s
Sub-Earth Point 6.82°N, 28.9°E
Launch Date Sep 4, 2023
Age 2 years
Type internet

Technical Details

Classification Payload
Mass 730.00 kg
Dry Mass 700.00 kg
Total Mass 730.00 kg
Length 0.30 m
Diameter 4.10 m
Span 29.00 m
Shape Box + pan
Manufacturer SPXS
Bus Type Starlink V2M
Phase Status In Orbit
Owner/State SPXS/US

Large Constellations

Loading constellations...